Home > Weather > Charlotte Amalie > Past weeks

Flag for US Virgin Islands Past Weather in Charlotte Amalie, US Virgin Islands — Yesterday and Last 2 Weeks

Now
81 °F

Clear.


Feels Like: 86 °F
Forecast: 81 / 87 °F
Wind: 5 mph from East

Location: Cyril E. King International Airport

Current Time: Jun 27, 2016 at 2:03:28 AM

Latest Report: Jun 27, 2016 at 12:53 AM


Visibility: 10 mi

Pressure: 30.02 "Hg

Humidity: 79%

Dew Point: 74 °F

Location of Charlotte AmalieLocation

Past Weather in Charlotte Amalie — Graph

°F

Charlotte Amalie Temperature Yesterday

Maximum temperature yesterday: 87 °F (at 8:53 AM)
Minimum temperature yesterday: 79 °F (at 12:19 PM)
Average temperature yesterday: 83 °F

High & Low Weather Summary for the Past Weeks

 TemperatureHumidityPressure
High92 °F (Jun 21, 1:53 PM)88% (Jun 19, 11:53 PM)30.17 "Hg (Jun 19, 11:53 PM)
Low79 °F (Jun 19, 11:53 PM)56% (Jun 21, 12:53 PM)29.99 "Hg (Jun 19, 4:53 PM)
Average85 °F74%30.07 "Hg
* Reported Jun 11 11:53 PM — Jun 26 11:53 PM, Charlotte Amalie, Weather by CustomWeather, © 2016

Note: Actual official high and low records may vary slightly from our data, if they occured in-between our weather recording intervals... More about our weather records

Advertising

Charlotte Amalie Weather History for the Previous 24 Hours

Scroll right to see more
 ConditionsComfort  
Time TempWeatherWind HumidityBarometerVisibility
11:53 PM
Sun, Jun 26
81 °FClear.3 mph79%30.03 "Hg10 mi
10:53 PM81 °FPassing clouds.No wind82%30.05 "Hg10 mi
9:53 PM81 °FClear.3 mph82%30.05 "Hg10 mi
8:53 PM81 °FClear.5 mph82%30.04 "Hg10 mi
7:53 PM81 °FClear.5 mph79%30.03 "Hg10 mi
6:53 PM83 °FSunny.7 mph77%30.01 "Hg10 mi
5:53 PM84 °FPassing clouds.8 mph74%30.00 "Hg10 mi
4:53 PM83 °FBroken clouds.6 mph79%30.00 "Hg10 mi
3:53 PM85 °FScattered clouds.8 mph70%30.01 "Hg10 mi
2:53 PM85 °FMostly cloudy.9 mph75%30.01 "Hg10 mi
1:53 PM86 °FScattered clouds.9 mph70%30.02 "Hg10 mi
12:53 PM81 °FLight rain. Broken clouds.3 mph82%30.03 "Hg10 mi
12:19 PM79 °FHeavy rain. Mostly cloudy.8 mph84%30.05 "Hg3 mi
11:53 AM81 °FLight rain. Mostly cloudy.No wind85%30.05 "Hg7 mi
10:53 AM85 °FLight rain. Scattered clouds.7 mph77%30.05 "Hg6 mi
9:53 AM86 °FPartly sunny.10 mph72%30.04 "Hg10 mi
8:53 AM87 °FPassing clouds.8 mph67%30.04 "Hg10 mi
7:53 AM86 °FSunny.13 mph70%30.03 "Hg10 mi
6:53 AM83 °FSunny.9 mph77%30.03 "Hg10 mi
5:53 AM82 °FSunny.8 mph79%30.02 "Hg10 mi
4:53 AM82 °FClear.7 mph79%30.01 "Hg10 mi
3:53 AM82 °FClear.5 mph82%30.01 "Hg10 mi
2:53 AM83 °FPassing clouds.6 mph79%30.00 "Hg10 mi
Weather by CustomWeather, © 2016

See weather overviewHow to use our weather pages